User: anonymous   Login
Location: ???? ?????????
(44.3677°N, 135.2344°E)
Time: 02:57:09
(UTC+00:00)
Language:

NOSS 3-2 (A) - Orbit

View from above orbital plane
View from above orbital plane
View from above satellite
View from above satellite

Ground track
Ground track

The orbit data is extracted from the following two-line orbital elements,

1 28095U 03054A   25149.88883033 0.00000270  00000-0  18067-3 0    05
2 28095  63.3858  78.3813 0571672   5.0507 354.9493 13.41927865    07
Epoch (UTC): 29 May 2025 21:19:54
Eccentricity: 0.0571672
inclination: 63.3858°
perigee height: 674 km
apogee height: 1530 km
right ascension of ascending node: 78.3813°
argument of perigee: 5.0507°
revolutions per day: 13.41927865
mean anomaly at epoch: 354.9493°
orbit number at epoch: 0

The dashed part of the orbit path shows where the satellite is in the earth's shadow,  

DLR